Location: *
(50.8512°N, 5.6907°E)
Time: 06:09:07
(UTC+00:00)

USA 234 - Pass Details

Date: 09 April 2020
Orbit: 1102 x 1106 km, 123.0° (Epoch: 14 May)

Event Time Altitude Azimuth Distance (km) Brightness Sun altitude
Rises 21:34:05 0° 58° (ENE) 3,926 6.1 -25.3°
Reaches altitude 10° 21:36:35 10° 60° (ENE) 2,967 5.5 -25.5°
Maximum altitude 21:43:09 74° 145° (SE) 1,147 3.1 -26.1°
Drops below altitude 10° 21:49:41 10° 231° (SW) 2,958 5.4 -26.6°
Sets 21:52:10 0° 233° (SW) 3,914 6.1 -26.8°
